Regional Weather Roundup
Issued by NWS Mt. Holly, NJ

Current Version | Previous Version | Graphics & Text | Print | Product List | Glossary On
Versions: 1 2 3 4 5 6 7 8 9 10 11 12 13 14 15 16 17 18 19 20 21 22 23 24 25 26 27 28 29 30 31 32 33 34 35 36 37 38 39 40 41 42 43 44 45 46 47 48
000
ASUS41 KPHI 070913
RWRPHI

REGIONAL WEATHER ROUNDUP
NATIONAL WEATHER SERVICE MOUNT HOLLY NJ
400 AM EST SUN MAR 07 2021

NOTE:  "FAIR" INDICATES FEW OR NO CLOUDS BELOW 12,000 FEET WITH NO
SIGNIFICANT WEATHER AND/OR OBSTRUCTIONS TO VISIBILITY.

 * = STATION DOES NOT REPORT PRECIPITATION (E.G. RAIN, SNOW, ETC.)
        OR FOG.

NJZ015>026-071000-
SOUTHERN NEW JERSEY

CITY           SKY/WX    TMP DP  RH WIND       PRES   REMARKS
POMONA         MOCLDY    30  15  53 CALM      30.26S
WILDWOOD*      CLEAR     32  22  66 N3        30.27R
MILLVILLE      CLEAR     20  16  84 CALM      30.26R
WRIGHTSTOWN    CLOUDY    27  16  62 W3        30.25R
MOUNT HOLLY    PTCLDY    27  19  72 CALM      30.27R
TRENTON        MOCLDY    27  15  61 N3        30.25R

$$
NJZ001>014-071000-
NORTHERN NEW JERSEY

CITY           SKY/WX    TMP DP  RH WIND       PRES   REMARKS
SUSSEX         CLOUDY    27  13  55 VRB3      30.22R
ANDOVER*         N/A     25  11  55 VRB3      30.23R
MORRISTOWN     CLOUDY    28  12  50 W3        30.25R
NEWARK         MOCLDY    29  11  47 NW12      30.25R WCI  19
TETERBORO      CLOUDY    28  13  53 NW8       30.24R WCI  20
CALDWELL       CLOUDY    30  11  45 NW7       30.25R WCI  23
SOMERVILLE     CLEAR     23  15  71 CALM      30.24R
ALLAIRE*       CLOUDY    26  15  63 NW5       30.26R WCI  20
TOMS RIVER*    CLOUDY    25  19  78 CALM      30.27R

$$
PAZ043-044-047-054-055-060>062-066>071-071000-
EASTERN PENNSYLVANIA

CITY           SKY/WX    TMP DP  RH WIND       PRES   REMARKS
PHILADELPHIA   PTCLDY    31  13  47 NW3       30.27R
NORTH PHILA    MOCLDY    29  15  56 N3        30.28R
BLUE BELL*     CLOUDY    25  19  76 CALM      30.26R
DOYLESTOWN     PTCLDY    28  14  55 W3        30.24R
QUAKERTOWN*    CLEAR     25  14  63 CALM      30.24R
PERKASIE*      FAIR      25  14  63 CALM      30.25R
POTTSTOWN      CLOUDY    28  13  53 N5        30.27R WCI  23
LANCASTER      CLOUDY    30  17  58 W9        30.26R WCI  22
COATESVILLE    CLOUDY    28  19  69 W5        30.25R WCI  23
WEST CHESTER   PTSUNNY   28  18  64 MISG      30.25R
READING        PTCLDY    29  16  58 N5        30.25R WCI  24
ALLENTOWN      PTCLDY    25  14  63 NE6       30.24R WCI  18
QN CITY/ALNTWN FAIR      30  12  47 CALM      30.26R
MOUNT POCONO   PTCLDY    18   9  68 NW9       30.12S WCI   7
HAZLETON       MOCLDY    25  14  63 NW3       30.19R
LEHIGHTON      FAIR      25  16  68 CALM      30.25R
WILKES BARRE   PTCLDY    24  12  60 NW5       30.21R WCI  18

$$
DEZALL-MDZ008-012-015-019-020-071000-
DELAWARE AND EASTERN MARYLAND

CITY           SKY/WX    TMP DP  RH WIND       PRES   REMARKS
WILMINGTON     CLEAR     28  17  63 W5        30.28R WCI  23
DOVER          CLEAR     27  17  66 W5        30.27R WCI  22
CHESWOLD       SUNNY     27  18  69 W6        30.27S WCI  20
GEORGETOWN     CLEAR     29  18  63 W5        30.27R WCI  24
EASTON         CLEAR     28  20  74 CALM      30.33R
STEVENSVILLE   CLEAR     32  18  55 NW10G17   30.30R WCI  24
ABERDEEN       CLEAR     26  16  65 CALM      30.30R
PATUXENT       CLEAR     28  24  85 NW5       30.30R WCI  23
OCEAN CITY     CLEAR     29  20  69 NW5       30.28R WCI  24
WALLOPS ISLAND CLEAR     26  20  77 NW5       30.29R WCI  20
CAMBRIDGE      PTCLDY    25  23  93 CALM      30.30R
SALISBURY      CLEAR     25  19  78 CALM      30.28R

$$
PAZ001-021-NYZ056-072-MDZ011-DCZ001-071000-
OTHER NEARBY LOCATIONS

CITY           SKY/WX    TMP DP  RH WIND       PRES   REMARKS
HARRISBURG     CLEAR     28  14  55 W12       30.27R WCI  18
STATE COLLEGE  CLEAR     19  11  70 W3        30.23R
WILLIAMSPORT   CLEAR     24  11  57 W6        30.24S WCI  17
BINGHAMTON     CLOUDY    17  11  77 N5        30.15R WCI  10
NEW YORK CITY  CLOUDY    29  12  49 VRB3      30.26R
BALTIMORE      CLEAR     25  16  68 W5        30.29R WCI  19
WASHINGTON DC  PTCLDY    32  15  49 NW10      30.32R WCI  24

$$




USA.gov is the U.S. government's official web portal to all federal, state and local government web resources and services.